Hourly Weather Luena

Today, 13 June, Sunday

Time Temperature Precipitation Wind Pressure Humidity
00:00 +10°C° 0 mm 2 mps 649 mmHg 52%
01:00 +10°C° 0 mm 2 mps 649 mmHg 54%
02:00 +9°C° 0 mm 2 mps 649 mmHg 55%
03:00 +9°C° 0 mm 2 mps 648 mmHg 57%
04:00 +9°C° 0 mm 2 mps 648 mmHg 58%
05:00 +9°C° 0 mm 2 mps 649 mmHg 57%
06:00 +10°C° 0 mm 2 mps 650 mmHg 55%
07:00 +12°C° 0 mm 2 mps 651 mmHg 53%
08:00 +14°C° 0 mm 3 mps 652 mmHg 44%
09:00 +19°C° 0 mm 3 mps 653 mmHg 35%
10:00 +23°C° 0 mm 4 mps 653 mmHg 26%
11:00 +25°C° 0 mm 3 mps 653 mmHg 23%
12:00 +27°C° 0 mm 3 mps 652 mmHg 21%
13:00 +28°C° 0 mm 3 mps 652 mmHg 19%
14:00 +28°C° 0 mm 3 mps 651 mmHg 19%
15:00 +27°C° 0 mm 2 mps 651 mmHg 19%
16:00 +27°C° 0 mm 2 mps 650 mmHg 20%
17:00 +24°C° 0 mm 2 mps 650 mmHg 26%
18:00 +19°C° 0 mm 2 mps 650 mmHg 33%
19:00 +16°C° 0 mm 1 mps 650 mmHg 39%
20:00 +15°C° 0 mm 1 mps 650 mmHg 41%
21:00 +14°C° 0 mm 2 mps 650 mmHg 43%
22:00 +13°C° 0 mm 2 mps 650 mmHg 45%
23:00 +13°C° 0 mm 2 mps 649 mmHg 46%

Tomorrow, 14 June, Monday

Time Temperature Precipitation Wind Pressure Humidity
00:00 +12°C° 0 mm 2 mps 649 mmHg 46%
01:00 +12°C° 0 mm 2 mps 648 mmHg 47%
02:00 +10°C° 0 mm 2 mps 648 mmHg 47%
03:00 +10°C° 0 mm 2 mps 648 mmHg 48%
04:00 +9°C° 0 mm 2 mps 647 mmHg 48%
05:00 +11°C° 0 mm 1 mps 648 mmHg 47%
06:00 +11°C° 0 mm 1 mps 649 mmHg 45%
07:00 +12°C° 0 mm 1 mps 650 mmHg 44%
08:00 +16°C° 0 mm 2 mps 650 mmHg 36%
09:00 +20°C° 0 mm 3 mps 651 mmHg 28%
10:00 +25°C° 0 mm 3 mps 652 mmHg 20%
11:00 +26°C° 0 mm 3 mps 652 mmHg 18%
12:00 +27°C° 0 mm 3 mps 651 mmHg 17%
13:00 +29°C° 0 mm 2 mps 651 mmHg 15%
14:00 +28°C° 0 mm 2 mps 651 mmHg 15%
15:00 +28°C° 0 mm 2 mps 650 mmHg 16%
16:00 +28°C° 0 mm 2 mps 650 mmHg 16%
17:00 +24°C° 0 mm 2 mps 650 mmHg 22%
18:00 +20°C° 0 mm 2 mps 650 mmHg 27%
19:00 +16°C° 0 mm 1 mps 649 mmHg 32%
20:00 +15°C° 0 mm 1 mps 649 mmHg 34%
21:00 +14°C° 0 mm 1 mps 649 mmHg 36%
22:00 +13°C° 0 mm 1 mps 649 mmHg 38%
23:00 +13°C° 0 mm 1 mps 649 mmHg 39%

Day after tomorrow, 15 June, Tuesday

Time Temperature Precipitation Wind Pressure Humidity
00:00 +12°C° 0 mm 1 mps 648 mmHg 41%
01:00 +11°C° 0 mm 1 mps 648 mmHg 42%
02:00 +11°C° 0 mm 1 mps 647 mmHg 43%
03:00 +11°C° 0 mm 1 mps 647 mmHg 43%
04:00 +10°C° 0 mm 1 mps 647 mmHg 44%
05:00 +11°C° 0 mm 1 mps 648 mmHg 42%
06:00 +12°C° 0 mm 1 mps 648 mmHg 40%
07:00 +13°C° 0 mm 1 mps 649 mmHg 39%
08:00 +18°C° 0 mm 1 mps 650 mmHg 32%
09:00 +23°C° 0 mm 2 mps 651 mmHg 25%
10:00 +27°C° 0 mm 2 mps 652 mmHg 18%
11:00 +28°C° 0 mm 2 mps 651 mmHg 17%
12:00 +29°C° 0 mm 2 mps 651 mmHg 15%
13:00 +30°C° 0 mm 2 mps 650 mmHg 13%
14:00 +30°C° 0 mm 2 mps 650 mmHg 13%
15:00 +29°C° 0 mm 2 mps 649 mmHg 14%
16:00 +29°C° 0 mm 2 mps 649 mmHg 14%
17:00 +25°C° 0 mm 2 mps 649 mmHg 19%
18:00 +21°C° 0 mm 1 mps 648 mmHg 24%
19:00 +18°C° 0 mm 1 mps 648 mmHg 29%
20:00 +16°C° 0 mm 1 mps 648 mmHg 31%
21:00 +15°C° 0 mm 1 mps 648 mmHg 33%
22:00 +14°C° 0 mm 1 mps 648 mmHg 34%
23:00 +13°C° 0 mm 1 mps 648 mmHg 36%

16 June, Wednesday

Time Temperature Precipitation Wind Pressure Humidity
00:00 +13°C° 0 mm 1 mps 647 mmHg 37%
01:00 +12°C° 0 mm 1 mps 647 mmHg 39%
02:00 +12°C° 0 mm 1 mps 647 mmHg 40%
03:00 +11°C° 0 mm 1 mps 647 mmHg 41%
04:00 +10°C° 0 mm 0 mps 646 mmHg 41%
05:00 +11°C° 0 mm 0 mps 647 mmHg 41%
06:00 +12°C° 0 mm 0 mps 648 mmHg 40%
07:00 +13°C° 0 mm 0 mps 649 mmHg 39%
08:00 +19°C° 0 mm 1 mps 650 mmHg 32%
09:00 +23°C° 0 mm 1 mps 651 mmHg 25%
10:00 +27°C° 0 mm 2 mps 652 mmHg 19%
11:00 +29°C° 0 mm 2 mps 651 mmHg 17%
12:00 +30°C° 0 mm 1 mps 651 mmHg 15%
13:00 +32°C° 0 mm 1 mps 651 mmHg 13%
14:00 +31°C° 0 mm 1 mps 650 mmHg 14%
15:00 +30°C° 0 mm 1 mps 650 mmHg 14%
16:00 +30°C° 0 mm 1 mps 649 mmHg 14%
17:00 +26°C° 0 mm 1 mps 649 mmHg 19%
18:00 +23°C° 0 mm 1 mps 649 mmHg 23%
19:00 +19°C° 0 mm 1 mps 648 mmHg 28%
20:00 +18°C° 0 mm 1 mps 648 mmHg 30%
21:00 +16°C° 0 mm 1 mps 648 mmHg 32%
22:00 +15°C° 0 mm 1 mps 648 mmHg 35%
23:00 +14°C° 0 mm 1 mps 648 mmHg 36%

17 June, Thursday

Time Temperature Precipitation Wind Pressure Humidity
00:00 +13°C° 0 mm 1 mps 647 mmHg 37%
01:00 +13°C° 0 mm 1 mps 647 mmHg 38%
02:00 +12°C° 0 mm 1 mps 647 mmHg 40%
03:00 +12°C° 0 mm 1 mps 647 mmHg 41%
04:00 +11°C° 0 mm 1 mps 647 mmHg 42%
05:00 +12°C° 0 mm 1 mps 648 mmHg 41%
06:00 +13°C° 0 mm 0 mps 648 mmHg 40%
07:00 +14°C° 0 mm 0 mps 649 mmHg 38%
08:00 +20°C° 0 mm 1 mps 650 mmHg 32%
09:00 +24°C° 0 mm 1 mps 651 mmHg 25%
10:00 +28°C° 0 mm 2 mps 652 mmHg 19%
11:00 +29°C° 0 mm 2 mps 652 mmHg 17%
12:00 +30°C° 0 mm 2 mps 651 mmHg 15%
13:00 +32°C° 0 mm 2 mps 651 mmHg 13%
14:00 +31°C° 0 mm 2 mps 651 mmHg 13%
15:00 +31°C° 0 mm 2 mps 650 mmHg 14%
16:00 +30°C° 0 mm 2 mps 650 mmHg 14%
17:00 +27°C° 0 mm 2 mps 650 mmHg 19%
18:00 +23°C° 0 mm 2 mps 649 mmHg 24%
19:00 +20°C° 0 mm 1 mps 649 mmHg 29%
20:00 +19°C° 0 mm 1 mps 649 mmHg 30%
21:00 +18°C° 0 mm 1 mps 649 mmHg 31%
22:00 +18°C° 0 mm 1 mps 649 mmHg 33%
23:00 +16°C° 0 mm 1 mps 649 mmHg 34%

18 June, Friday

Time Temperature Precipitation Wind Pressure Humidity
00:00 +16°C° 0 mm 1 mps 648 mmHg 34%
01:00 +15°C° 0 mm 1 mps 648 mmHg 35%
02:00 +15°C° 0 mm 1 mps 648 mmHg 37%
03:00 +14°C° 0 mm 1 mps 648 mmHg 39%
04:00 +14°C° 0 mm 1 mps 648 mmHg 40%
05:00 +14°C° 0 mm 1 mps 649 mmHg 40%
06:00 +15°C° 0 mm 1 mps 649 mmHg 40%
07:00 +15°C° 0 mm 1 mps 650 mmHg 40%
08:00 +19°C° 0 mm 2 mps 651 mmHg 33%
09:00 +24°C° 0 mm 3 mps 652 mmHg 26%
10:00 +28°C° 0 mm 3 mps 653 mmHg 19%
11:00 +29°C° 0 mm 3 mps 652 mmHg 17%
12:00 +31°C° 0 mm 3 mps 652 mmHg 16%
13:00 +33°C° 0 mm 3 mps 652 mmHg 15%
14:00 +31°C° 0 mm 3 mps 651 mmHg 15%
15:00 +31°C° 0 mm 3 mps 651 mmHg 16%
16:00 +30°C° 0 mm 3 mps 651 mmHg 16%
17:00 +27°C° 0 mm 2 mps 651 mmHg 21%
18:00 +23°C° 0 mm 2 mps 650 mmHg 26%
19:00 +19°C° 0 mm 2 mps 650 mmHg 31%
20:00 +18°C° 0 mm 2 mps 650 mmHg 33%
21:00 +18°C° 0 mm 2 mps 650 mmHg 34%
22:00 +17°C° 0 mm 2 mps 650 mmHg 35%
23:00 +17°C° 0 mm 2 mps 650 mmHg 35%
Show more

We Need Your Consent

Meteoprog and our Service Providers may store and access personal data such as cookies, device identifiers or other similar technologies on your device and process such data to personalise content and ads, as well as provide social media features and to analyse the traffic.

  • Store and/or access information on your device

    Cookies, device identifiers or other information can be stored or accessed on your device for the purposes indicated above.

  • Personalised ads and content, ad and content measurement, audience insights, and products development

    Ads and content can be personalised based on a profile. More data can be added to better personalise ads and content. Ad and content performance can be measured. Insights about the audience who saw the ads and content can be derived. Such data can be used to develop or improve user’s experience, systems and software.

By clicking ‘I Agree’ you will allow the use of indicated cookies, device identifiers, web beacons or other similar technologies. Your settings can be changed in the browser on your device.

For certain purposes, legitimate interests may be relied on, rather than consent. You can read more about this in our Privacy and Cookie Policy.